Tracking 19792 objects as of 16-Jul-2019
HD Live streaming from Space Station
objects crossing your sky now

H-2A R/B

Track H-2A R/B now!


NORAD ID: 42966
Int'l Code: 2017-062B
Perigee: 361.1 km
Apogee: 35,041.9 km
Inclination: 31.4 °
Period: 619.5 minutes
Semi major axis: 24072 km
RCS: Unknown
Launch date: October 9, 2017
Source: Japan (JPN)
Launch site: TANEGASHIMA SPACE CENTER (TNSTA)

Note: This is a ROCKET BODY
aabbcc
Your satellite tracking list
Your tracking list is empty




NASA's NSSDC Master Catalog

Two Line Element Set (TLE):
1 42966U 17062B   19196.18262445 -.00000080 +00000-0 +15966-3 0  9990
2 42966 031.3902 153.4269 7203413 175.4125 199.6632 02.32445597014891
Source of the keplerian elements: AFSPC